Regional Weather Roundup
Issued by NWS Kansas City/Pleasant Hill, MO

Home | Current Version | Previous Version | Graphics & Text | Print | Product List | Glossary Off
Versions: 1 2 3 4 5 6 7 8 9 10 11 12 13 14 15 16 17 18 19 20 21 22 23 24 25 26 27 28

000
ASUS43 KEAX 080810
RWREAX

WEATHER ROUNDUP FOR EASTERN KANSAS AND NORTHWEST MISSOURI
NATIONAL WEATHER SERVICE KANSAS CITY/PLEASANT HILL MO
200 AM CST THU DEC 08 2016

KSZ040-057-103>105-MOZ028-029-037-043-080900-
...KANSAS CITY METROPOLITAN AREA...

CITY           SKY/WX    TMP DP  RH WIND       PRES   REMARKS
K.C. INTL      CLEAR     19   6  57 NW13      30.47R WCI   6
K.C. DOWNTOWN  CLEAR     20   8  60 W8        30.50R WCI  10
LEES SUMMIT    CLEAR     19   8  62 W10       30.48R WCI   7
OLATHE - IXD   CLEAR     18   8  65 NW10      30.50R WCI   6
OLATHE - OJC   CLEAR     18   7  62 NW9       30.49R WCI   7
LAWRENCE       CLEAR     19   9  65 NW10      30.52R WCI   7

$$

MOZ001>008-011>017-020>025-030>033-038>040-044>046-053-054-080900-
...NORTHERN AND CENTRAL MISSOURI...

CITY           SKY/WX    TMP DP  RH WIND       PRES   REMARKS
ST. JOSEPH     CLEAR     18   7  62 NW12      30.49R WCI   5
MOSBY          SUNNY     21  10  63 NW10G18   30.48R WCI  10
WARRENSBURG    CLEAR     19  10  68 W7        30.48R WCI  10
WHITEMAN AFB   CLEAR     20  13  74 W7        30.46R WCI  11
CLINTON        PTCLDY    18  14  86 W7        30.49R WCI   8
SEDALIA        CLEAR     21  11  65 W10       30.46R WCI  10
WARSAW         NOT AVBL
CHILLICOTHE      N/A     19   8  62 NW7       30.46R WCI  10
KIRKSVILLE     CLEAR     17   9  70 W9        30.39R WCI   6

$$

MOZ041-047>049-056>058-063>065-088>090-097-080900-
...EASTERN AND SOUTHERN MISSOURI...

CITY           SKY/WX    TMP DP  RH WIND       PRES   REMARKS
ST. LOUIS INTL CLEAR     25  11  55 W13       30.39R WCI  14
SPIRIT OF STL  CLEAR     24  13  62 W8        30.41R WCI  15
COLUMBIA       CLEAR     20  11  68 W8        30.42R WCI  10
JEFFERSON CITY CLEAR     21  12  68 W8        30.46R WCI  11
ROLLA          CLEAR     20  12  71 W8        30.40R WCI  10
OSAGE BEACH    CLEAR     21  12  68 NW7       30.47R WCI  12
SPRINGFIELD    CLEAR     21  13  71 NW9       30.46R WCI  11
BRANSON        PTCLDY    25  18  74 NW14      30.44R WCI  13
JOPLIN         CLEAR     20  16  84 N8        30.53R WCI  10
WEST PLAINS    CLOUDY    26  19  74 NW8       30.41R WCI  18

$$

IAZ060-094-KSZ022-034>040-054-083-096-NEZ052-066-093-080900-
...KANSAS...SOUTHEAST NEBRASKA AND IOWA...

CITY           SKY/WX    TMP DP  RH WIND       PRES   REMARKS
TOPEKA         CLEAR     19   7  59 W9        30.54R WCI   8
MANHATTAN      CLEAR     18   6  59 W3        30.56R
EMPORIA        CLEAR     15  10  80 W8        30.54R WCI   4
CHANUTE        CLEAR     19  12  74 NW10      30.53S WCI   7
WICHITA        CLEAR     19  13  77 NW9       30.57R WCI   8
OMAHA          PTCLDY    14   4  64 NW14      30.49R WCI  -1
LINCOLN        CLEAR     14   3  61 NW14      30.53R WCI  -1
FALLS CITY     CLEAR     16   7  67 NW9       30.50R WCI   4
LAMONI         CLEAR     15   7  70 W21G29    30.39R WCI  -2
DES MOINES     FLURRIES  17   8  67 NW23G31   30.37R WCI  -1

$$





USA.gov is the U.S. government's official web portal to all federal, state and local government web resources and services.